Time,TemperatureF,DewpointF,PressureIn,WindDirection,WindDirectionDegrees,WindSpeedMPH,WindSpeedGustMPH,Humidity,HourlyPrecipIn,Conditions,Clouds,dailyrainin,SolarRadiationWatts/m^2,SoftwareType,DateUTC
2013-01-14 00:02:00,22.0,21.0,-100.00,NW,316,2.0,7.0,94,0.00,,,-99.99,0.000000,,2013-01-14 08:02:00,
2013-01-14 00:11:00,22.0,21.0,-100.00,NW,316,2.0,7.0,94,0.00,,,-99.99,0.000000,,2013-01-14 08:11:00,
2013-01-14 00:33:00,21.0,20.0,-100.00,WSW,255,3.0,4.0,94,0.00,,,-99.99,0.000000,,2013-01-14 08:33:00,
2013-01-14 00:43:00,21.0,20.0,-100.00,WSW,255,3.0,4.0,94,0.00,,,-99.99,0.000000,,2013-01-14 08:43:00,
2013-01-14 00:53:00,21.0,20.0,-100.00,WSW,255,3.0,4.0,94,0.00,,,-99.99,0.000000,,2013-01-14 08:53:00,
2013-01-14 01:02:00,21.0,20.0,-100.00,WSW,255,3.0,4.0,94,0.00,,,-99.99,0.000000,,2013-01-14 09:02:00,
2013-01-14 01:11:00,21.0,20.0,-100.00,WSW,255,3.0,4.0,94,0.00,,,-99.99,0.000000,,2013-01-14 09:11:00,
2013-01-14 01:34:00,22.0,21.0,-100.00,SW,228,3.0,5.0,95,0.00,,,0.00,0.000000,,2013-01-14 09:34:00,
2013-01-14 01:43:00,22.0,21.0,-100.00,SW,228,3.0,5.0,95,0.00,,,0.00,0.000000,,2013-01-14 09:43:00,
2013-01-14 01:53:00,22.0,21.0,-100.00,SW,228,3.0,5.0,95,0.00,,,0.00,0.000000,,2013-01-14 09:53:00,
2013-01-14 02:02:00,22.0,21.0,-100.00,SW,228,3.0,5.0,95,0.00,,,0.00,0.000000,,2013-01-14 10:02:00,
2013-01-14 02:11:00,22.0,21.0,-100.00,SW,228,3.0,5.0,95,0.00,,,0.00,0.000000,,2013-01-14 10:11:00,
2013-01-14 02:33:00,21.0,20.0,-100.00,SW,234,3.0,6.0,94,0.00,,,0.00,0.000000,,2013-01-14 10:33:00,
2013-01-14 02:43:00,21.0,20.0,-100.00,SW,234,3.0,6.0,94,0.00,,,0.00,0.000000,,2013-01-14 10:43:00,
2013-01-14 02:52:00,21.0,20.0,-100.00,SW,234,3.0,6.0,94,0.00,,,0.00,0.000000,,2013-01-14 10:52:00,
2013-01-14 03:02:00,21.0,20.0,-100.00,SW,234,3.0,6.0,94,0.00,,,0.00,0.000000,,2013-01-14 11:02:00,
2013-01-14 03:11:00,21.0,20.0,-100.00,SW,234,3.0,6.0,94,0.00,,,0.00,0.000000,,2013-01-14 11:11:00,
2013-01-14 03:12:00,21.0,20.0,-100.00,SW,218,1.0,6.0,94,0.00,,,0.00,0.000000,,2013-01-14 11:12:00,
2013-01-14 03:43:00,21.0,20.0,-100.00,SW,218,1.0,6.0,94,0.00,,,0.00,0.000000,,2013-01-14 11:43:00,
2013-01-14 03:53:00,21.0,20.0,-100.00,SW,218,1.0,6.0,94,0.00,,,0.00,0.000000,,2013-01-14 11:53:00,
2013-01-14 04:02:00,21.0,20.0,-100.00,SW,218,1.0,6.0,94,0.00,,,0.00,0.000000,,2013-01-14 12:02:00,
2013-01-14 04:12:00,20.0,18.0,-100.00,WNW,284,2.0,4.0,93,0.00,,,0.00,0.000000,,2013-01-14 12:12:00,
2013-01-14 04:33:00,20.0,18.0,-100.00,WNW,284,2.0,4.0,93,0.00,,,0.00,0.000000,,2013-01-14 12:33:00,
2013-01-14 04:43:00,20.0,18.0,-100.00,WNW,284,2.0,4.0,93,0.00,,,0.00,0.000000,,2013-01-14 12:43:00,
2013-01-14 04:53:00,20.0,18.0,-100.00,WNW,284,2.0,4.0,93,0.00,,,0.00,0.000000,,2013-01-14 12:53:00,
2013-01-14 05:03:00,20.0,18.0,-100.00,WNW,284,2.0,4.0,93,0.00,,,0.00,0.000000,,2013-01-14 13:03:00,
2013-01-14 05:12:00,21.0,20.0,-100.00,WNW,285,2.0,5.0,94,0.00,,,0.00,0.000000,,2013-01-14 13:12:00,
2013-01-14 05:33:00,21.0,20.0,-100.00,WNW,285,2.0,5.0,94,0.00,,,0.00,0.000000,,2013-01-14 13:33:00,
2013-01-14 05:43:00,21.0,20.0,-100.00,WNW,285,2.0,5.0,94,0.00,,,0.00,0.000000,,2013-01-14 13:43:00,
2013-01-14 05:53:00,21.0,20.0,-100.00,WNW,285,2.0,5.0,94,0.00,,,0.00,0.000000,,2013-01-14 13:53:00,
2013-01-14 06:02:00,21.0,20.0,-100.00,WNW,285,2.0,5.0,94,0.00,,,0.00,0.000000,,2013-01-14 14:02:00,
2013-01-14 06:12:00,22.0,21.0,-100.00,WNW,286,3.0,5.0,94,0.00,,,0.00,0.000000,,2013-01-14 14:12:00,
2013-01-14 06:33:00,22.0,21.0,-100.00,WNW,286,3.0,5.0,94,0.00,,,0.00,0.000000,,2013-01-14 14:33:00,
2013-01-14 06:43:00,22.0,21.0,-100.00,WNW,286,3.0,5.0,94,0.00,,,0.00,0.000000,,2013-01-14 14:43:00,
2013-01-14 06:53:00,22.0,21.0,-100.00,WNW,286,3.0,5.0,94,0.00,,,0.00,0.000000,,2013-01-14 14:53:00,
2013-01-14 07:03:00,22.0,21.0,-100.00,WNW,286,3.0,5.0,94,0.00,,,0.00,0.000000,,2013-01-14 15:03:00,
2013-01-14 07:12:00,27.0,26.0,-100.00,SSW,195,1.0,4.0,96,0.00,,,0.00,0.000000,,2013-01-14 15:12:00,
2013-01-14 07:33:00,27.0,26.0,-100.00,SSW,195,1.0,4.0,96,0.00,,,0.00,0.000000,,2013-01-14 15:33:00,
2013-01-14 07:43:00,27.0,26.0,-100.00,SSW,195,1.0,4.0,96,0.00,,,0.00,0.000000,,2013-01-14 15:43:00,
2013-01-14 07:53:00,27.0,26.0,-100.00,SSW,195,1.0,4.0,96,0.00,,,0.00,0.000000,,2013-01-14 15:53:00,
2013-01-14 08:02:00,27.0,26.0,-100.00,SSW,195,1.0,4.0,96,0.00,,,0.00,0.000000,,2013-01-14 16:02:00,
2013-01-14 08:12:00,23.0,21.0,-100.00,West,267,2.0,4.0,93,0.00,,,0.00,0.000000,,2013-01-14 16:12:00,
2013-01-14 08:33:00,23.0,21.0,-100.00,West,267,2.0,4.0,93,0.00,,,0.00,0.000000,,2013-01-14 16:33:00,
2013-01-14 08:43:00,23.0,21.0,-100.00,West,267,2.0,4.0,93,0.00,,,0.00,0.000000,,2013-01-14 16:43:00,
2013-01-14 08:53:00,23.0,21.0,-100.00,West,267,2.0,4.0,93,0.00,,,0.00,0.000000,,2013-01-14 16:53:00,
2013-01-14 09:03:00,23.0,21.0,-100.00,West,267,2.0,4.0,93,0.00,,,0.00,0.000000,,2013-01-14 17:03:00,
2013-01-14 09:12:00,29.0,27.0,-100.00,NNW,336,1.0,4.0,94,0.00,,,-99.99,0.000000,,2013-01-14 17:12:00,
2013-01-14 09:33:00,29.0,27.0,-100.00,NNW,336,1.0,4.0,94,0.00,,,-99.99,0.000000,,2013-01-14 17:33:00,
2013-01-14 09:43:00,29.0,27.0,-100.00,NNW,336,1.0,4.0,94,0.00,,,-99.99,0.000000,,2013-01-14 17:43:00,
2013-01-14 09:53:00,29.0,27.0,-100.00,NNW,336,1.0,4.0,94,0.00,,,-99.99,0.000000,,2013-01-14 17:53:00,
2013-01-14 10:02:00,29.0,27.0,-100.00,NNW,336,1.0,4.0,94,0.00,,,-99.99,0.000000,,2013-01-14 18:02:00,
2013-01-14 10:12:00,30.0,28.0,-100.00,NW,313,1.0,4.0,94,0.00,,,0.00,0.000000,,2013-01-14 18:12:00,
2013-01-14 10:33:00,30.0,28.0,-100.00,NW,313,1.0,4.0,94,0.00,,,0.00,0.000000,,2013-01-14 18:33:00,
2013-01-14 10:43:00,30.0,28.0,-100.00,NW,313,1.0,4.0,94,0.00,,,0.00,0.000000,,2013-01-14 18:43:00,
2013-01-14 10:53:00,30.0,28.0,-100.00,NW,313,1.0,4.0,94,0.00,,,0.00,0.000000,,2013-01-14 18:53:00,
2013-01-14 11:02:00,30.0,28.0,-100.00,NW,313,1.0,4.0,94,0.00,,,0.00,0.000000,,2013-01-14 19:02:00,
2013-01-14 11:12:00,34.0,32.0,-100.00,WNW,282,1.0,2.0,92,0.01,,,0.01,0.000000,,2013-01-14 19:12:00,
2013-01-14 11:43:00,34.0,32.0,-100.00,WNW,282,1.0,2.0,92,0.01,,,0.01,0.000000,,2013-01-14 19:43:00,
2013-01-14 11:53:00,34.0,32.0,-100.00,WNW,282,1.0,2.0,92,0.01,,,0.01,0.000000,,2013-01-14 19:53:00,
2013-01-14 12:03:00,34.0,32.0,-100.00,WNW,282,1.0,2.0,92,0.01,,,0.01,0.000000,,2013-01-14 20:03:00,
2013-01-14 12:12:00,34.0,30.0,-100.00,WSW,240,3.0,5.0,85,0.00,,,0.01,0.000000,,2013-01-14 20:12:00,
2013-01-14 12:33:00,34.0,30.0,-100.00,WSW,240,3.0,5.0,85,0.00,,,0.01,0.000000,,2013-01-14 20:33:00,
2013-01-14 12:43:00,34.0,30.0,-100.00,WSW,240,3.0,5.0,85,0.00,,,0.01,0.000000,,2013-01-14 20:43:00,
2013-01-14 12:53:00,34.0,30.0,-100.00,WSW,240,3.0,5.0,85,0.00,,,0.01,0.000000,,2013-01-14 20:53:00,
2013-01-14 13:02:00,34.0,30.0,-100.00,WSW,240,3.0,5.0,85,0.00,,,0.01,0.000000,,2013-01-14 21:02:00,
2013-01-14 13:33:00,36.0,32.0,-100.00,SSW,206,2.0,5.0,84,0.00,,,0.01,0.000000,,2013-01-14 21:33:00,
2013-01-14 13:43:00,36.0,32.0,-100.00,SSW,206,2.0,5.0,84,0.00,,,0.01,0.000000,,2013-01-14 21:43:00,
2013-01-14 13:53:00,36.0,32.0,-100.00,SSW,206,2.0,5.0,84,0.00,,,0.01,0.000000,,2013-01-14 21:53:00,
2013-01-14 14:02:00,36.0,32.0,-100.00,SSW,206,2.0,5.0,84,0.00,,,0.01,0.000000,,2013-01-14 22:02:00,
2013-01-14 14:11:00,36.0,32.0,-100.00,SSW,206,2.0,5.0,84,0.00,,,0.01,0.000000,,2013-01-14 22:11:00,
2013-01-14 14:12:00,34.0,31.0,-100.00,NW,315,1.0,5.0,88,0.00,,,-99.99,0.000000,,2013-01-14 22:12:00,
2013-01-14 14:33:00,34.0,31.0,-100.00,NW,315,1.0,5.0,88,0.00,,,-99.99,0.000000,,2013-01-14 22:33:00,
2013-01-14 14:43:00,34.0,31.0,-100.00,NW,315,1.0,5.0,88,0.00,,,-99.99,0.000000,,2013-01-14 22:43:00,
2013-01-14 14:52:00,34.0,31.0,-100.00,NW,315,1.0,5.0,88,0.00,,,-99.99,0.000000,,2013-01-14 22:52:00,
2013-01-14 15:02:00,34.0,31.0,-100.00,NW,315,1.0,5.0,88,0.00,,,-99.99,0.000000,,2013-01-14 23:02:00,
2013-01-14 15:12:00,34.0,32.0,-100.00,WNW,302,1.0,4.0,94,0.00,,,0.01,0.000000,,2013-01-14 23:12:00,
2013-01-14 15:33:00,34.0,32.0,-100.00,WNW,302,1.0,4.0,94,0.00,,,0.01,0.000000,,2013-01-14 23:33:00,
2013-01-14 15:43:00,34.0,32.0,-100.00,WNW,302,1.0,4.0,94,0.00,,,0.01,0.000000,,2013-01-14 23:43:00,
2013-01-14 15:53:00,34.0,32.0,-100.00,WNW,302,1.0,4.0,94,0.00,,,0.01,0.000000,,2013-01-14 23:53:00,
2013-01-14 16:02:00,34.0,32.0,-100.00,WNW,302,1.0,4.0,94,0.00,,,0.01,0.000000,,2013-01-15 00:02:00,
2013-01-14 16:12:00,34.0,33.0,-100.00,West,280,1.0,4.0,97,0.00,,,-99.99,0.000000,,2013-01-15 00:12:00,
2013-01-14 16:33:00,34.0,33.0,-100.00,West,280,1.0,4.0,97,0.00,,,-99.99,0.000000,,2013-01-15 00:33:00,
2013-01-14 16:43:00,34.0,33.0,-100.00,West,280,1.0,4.0,97,0.00,,,-99.99,0.000000,,2013-01-15 00:43:00,
2013-01-14 16:53:00,34.0,33.0,-100.00,West,280,1.0,4.0,97,0.00,,,-99.99,0.000000,,2013-01-15 00:53:00,
2013-01-14 17:02:00,34.0,33.0,-100.00,West,280,1.0,4.0,97,0.00,,,-99.99,0.000000,,2013-01-15 01:02:00,
2013-01-14 18:33:00,33.0,32.0,-100.00,North,354,1.0,3.0,98,-99.99,,,0.01,0.000000,,2013-01-15 02:33:00,
2013-01-14 18:42:00,33.0,32.0,-100.00,North,354,1.0,3.0,98,-99.99,,,0.01,0.000000,,2013-01-15 02:42:00,
2013-01-14 18:53:00,33.0,32.0,-100.00,North,354,1.0,3.0,98,-99.99,,,0.01,0.000000,,2013-01-15 02:53:00,
2013-01-14 19:02:00,33.0,32.0,-100.00,North,354,1.0,3.0,98,-99.99,,,0.01,0.000000,,2013-01-15 03:02:00,
2013-01-14 19:11:00,33.0,32.0,-100.00,North,354,1.0,3.0,98,-99.99,,,0.01,0.000000,,2013-01-15 03:11:00,
2013-01-14 19:12:00,33.0,32.0,-100.00,West,274,1.0,3.0,98,0.00,,,0.01,0.000000,,2013-01-15 03:12:00,
2013-01-14 19:33:00,33.0,32.0,-100.00,West,274,1.0,3.0,98,0.00,,,0.01,0.000000,,2013-01-15 03:33:00,
2013-01-14 19:42:00,33.0,32.0,-100.00,West,274,1.0,3.0,98,0.00,,,0.01,0.000000,,2013-01-15 03:42:00,
2013-01-14 19:52:00,33.0,32.0,-100.00,West,274,1.0,3.0,98,0.00,,,0.01,0.000000,,2013-01-15 03:52:00,
2013-01-14 20:02:00,33.0,32.0,-100.00,West,274,1.0,3.0,98,0.00,,,0.01,0.000000,,2013-01-15 04:02:00,
2013-01-14 20:12:00,34.0,34.0,-100.00,West,273,1.0,4.0,99,0.00,,,0.01,0.000000,,2013-01-15 04:12:00,
2013-01-14 20:33:00,34.0,34.0,-100.00,West,273,1.0,4.0,99,0.00,,,0.01,0.000000,,2013-01-15 04:33:00,
2013-01-14 20:42:00,34.0,34.0,-100.00,West,273,1.0,4.0,99,0.00,,,0.01,0.000000,,2013-01-15 04:42:00,
2013-01-14 20:52:00,34.0,34.0,-100.00,West,273,1.0,4.0,99,0.00,,,0.01,0.000000,,2013-01-15 04:52:00,
2013-01-14 21:03:00,34.0,34.0,-100.00,West,273,1.0,4.0,99,0.00,,,0.01,0.000000,,2013-01-15 05:03:00,
2013-01-14 21:12:00,35.0,35.0,-100.00,NW,319,0.0,2.0,99,0.01,,,0.02,0.000000,,2013-01-15 05:12:00,
2013-01-14 21:33:00,35.0,35.0,-100.00,NW,319,0.0,2.0,99,0.01,,,0.02,0.000000,,2013-01-15 05:33:00,
2013-01-14 21:42:00,35.0,35.0,-100.00,NW,319,0.0,2.0,99,0.01,,,0.02,0.000000,,2013-01-15 05:42:00,
2013-01-14 21:52:00,35.0,35.0,-100.00,NW,319,0.0,2.0,99,0.01,,,0.02,0.000000,,2013-01-15 05:52:00,
2013-01-14 22:02:00,35.0,35.0,-100.00,NW,319,0.0,2.0,99,0.01,,,0.02,0.000000,,2013-01-15 06:02:00,
2013-01-14 22:33:00,34.0,34.0,-100.00,NW,307,1.0,3.0,99,0.00,,,0.02,0.000000,,2013-01-15 06:33:00,
2013-01-14 22:43:00,34.0,34.0,-100.00,NW,307,1.0,3.0,99,0.00,,,0.02,0.000000,,2013-01-15 06:43:00,
2013-01-14 22:52:00,34.0,34.0,-100.00,NW,307,1.0,3.0,99,0.00,,,0.02,0.000000,,2013-01-15 06:52:00,
2013-01-14 23:02:00,34.0,34.0,-100.00,NW,307,1.0,3.0,99,0.00,,,0.02,0.000000,,2013-01-15 07:02:00,
2013-01-14 23:11:00,34.0,34.0,-100.00,NW,307,1.0,3.0,99,0.00,,,0.02,0.000000,,2013-01-15 07:11:00,
2013-01-14 23:12:00,35.0,35.0,-100.00,WSW,253,3.0,4.0,99,0.00,,,0.02,0.000000,,2013-01-15 07:12:00,
2013-01-14 23:33:00,35.0,35.0,-100.00,WSW,253,3.0,4.0,99,0.00,,,0.02,0.000000,,2013-01-15 07:33:00,
2013-01-14 23:43:00,35.0,35.0,-100.00,WSW,253,3.0,4.0,99,0.00,,,0.02,0.000000,,2013-01-15 07:43:00,
2013-01-14 23:52:00,35.0,35.0,-100.00,WSW,253,3.0,4.0,99,0.00,,,0.02,0.000000,,2013-01-15 07:52:00,